Weather History for KRAC - October, 2012

Change the Weather History Date:

Monday, October 8, 2012

  Actual Average Record
Temperature  
Mean Temperature 47 °F -  
Max Temperature 60 °F 61 °F 84 °F (2007)
Min Temperature 34 °F 45 °F 30 °F (1952)
Degree Days  
Heating Degree Days 18    
Moisture  
Dew Point 26 °F    
Average Humidity 45    
Maximum Humidity 64    
Minimum Humidity 27    
Precipitation  
Precipitation 0.00 in - - ()
Sea Level Pressure  
Sea Level Pressure 30.06 in    
Wind  
Wind Speed 12 mph (SSW)    
Max Wind Speed 20 mph    
Max Gust Speed 30 mph    
Visibility 10 miles    
Events      
Averages and records for this station are not official NWS values.
T = Trace of Precipitation, MM = Missing Value Source: NWS Daily Summary

Daily Weather History Graph

Daily Weather History Graph

Search for Another Location

Airport or City:

Trip Planner

Search our weather history database for the weather conditions in past years. The results will help you decide how hot, cold, wet, or windy it might be!

Date:

Astronomy

Oct. 08, 2012 Rise Set
Actual Time 6:56 AM CDT 6:19 PM CDT
Civil Twilight 6:28 AM CDT 6:47 PM CDT
Nautical Twilight 5:55 AM CDT 7:20 PM CDT
Astronomical Twilight 5:23 AM CDT 7:53 PM CDT
Moon No Moon Rise 2:17 PM CDT (10/8)
Length of Visible Light 12h 19m
Length of Day
11h 22m
Last Quarter, 46% of the Moon is Illuminated
Oct 8
Last Quarter
Oct 15
New
Oct 21
First Quarter
Oct 29
Full
Nov 6
Last Quarter

Hourly Weather History & Observations

Time (CDT) Temp. Windchill Dew Point Humidity Pressure Visibility Wind Dir Wind Speed Gust Speed Precip Events Conditions
12:53 AM 35.1 °F 30.1 °F 23.0 °F 61% 30.14 in 10.0 mi SW 5.8 mph - N/A   Clear
1:53 AM 34.0 °F 26.6 °F 23.0 °F 64% 30.14 in 10.0 mi SW 9.2 mph - N/A   Clear
2:53 AM 34.0 °F 27.2 °F 21.9 °F 61% 30.13 in 10.0 mi SW 8.1 mph - N/A   Clear
3:53 AM 34.0 °F 26.6 °F 21.9 °F 61% 30.13 in 10.0 mi SW 9.2 mph - N/A   Clear
4:53 AM 34.0 °F 27.2 °F 23.0 °F 64% 30.13 in 10.0 mi SW 8.1 mph - N/A   Clear
5:53 AM 35.1 °F 26.9 °F 23.0 °F 61% 30.13 in 10.0 mi SW 11.5 mph - N/A   Clear
6:53 AM 36.0 °F 28.0 °F 23.0 °F 59% 30.13 in 10.0 mi SW 11.5 mph - N/A   Clear
7:53 AM 37.9 °F 29.6 °F 24.1 °F 57% 30.13 in 10.0 mi SW 13.8 mph - N/A   Clear
8:53 AM 43.0 °F 35.7 °F 26.1 °F 51% 30.14 in 10.0 mi SW 15.0 mph 21.9 mph N/A   Clear
9:53 AM 50.0 °F - 27.0 °F 41% 30.12 in 10.0 mi SW 15.0 mph 23.0 mph N/A   Clear
10:53 AM 54.0 °F - 27.0 °F 35% 30.10 in 10.0 mi SSW 17.3 mph 26.5 mph N/A   Clear
11:53 AM 55.9 °F - 27.0 °F 33% 30.09 in 10.0 mi SW 19.6 mph 28.8 mph N/A   Clear
12:53 PM 57.9 °F - 27.0 °F 31% 30.06 in 10.0 mi SW 19.6 mph 25.3 mph N/A   Clear
1:53 PM 59.0 °F - 27.0 °F 29% 30.03 in 10.0 mi South 13.8 mph 29.9 mph N/A   Clear
2:53 PM 60.1 °F - 27.0 °F 28% 30.01 in 4.0 mi SSW 18.4 mph 28.8 mph N/A   Haze
3:53 PM 59.0 °F - 25.0 °F 27% 29.99 in 10.0 mi SSW 18.4 mph 25.3 mph N/A   Clear
4:53 PM 57.9 °F - 26.1 °F 30% 29.98 in 10.0 mi SSW 16.1 mph 29.9 mph N/A   Clear
5:53 PM 55.9 °F - 27.0 °F 33% 29.98 in 10.0 mi SSW 16.1 mph - N/A   Partly Cloudy
6:53 PM 55.0 °F - 27.0 °F 34% 29.99 in 10.0 mi SSW 10.4 mph 19.6 mph N/A   Clear
7:53 PM 54.0 °F - 28.0 °F 37% 29.99 in 10.0 mi South 10.4 mph - N/A   Clear
9:53 PM 53.1 °F - 30.0 °F 41% 29.99 in 10.0 mi SSW 17.3 mph 23.0 mph N/A   Clear
10:53 PM 52.0 °F - 30.0 °F 43% 29.99 in 10.0 mi SSW 11.5 mph 20.7 mph N/A   Clear
11:53 PM 52.0 °F - 30.9 °F 45% 29.97 in 10.0 mi SSW 13.8 mph 21.9 mph N/A   Overcast